Location: Bilbao
(43.2500°N, 2.9667°W)
Time: 13:00:28
(UTC+02:00)

ISS - Visible Passes

Search period start: 20 October 2020 00:00
Search period end: 29 October 2020 23:00
Orbit: 418 x 419 km, 51.6° (Epoch: 20 October)

Date Brightness Start Highest point End Pass type
(mag) Time Alt. Az. Time Alt. Az. Time Alt. Az.
22 Oct -1.7 07:36:59 10° SSW 07:39:52 27° SE 07:42:46 10° ENE visible
23 Oct -1.0 06:50:04 10° S 06:52:17 17° SE 06:54:31 10° E visible
24 Oct -3.6 07:37:39 10° SW 07:41:00 76° SE 07:44:21 10° ENE visible
25 Oct -2.8 05:52:29 36° S 05:53:19 44° SE 05:56:32 10° ENE visible
26 Oct -1.0 05:07:10 19° E 05:07:10 19° E 05:08:33 10° ENE visible
26 Oct -3.3 06:40:09 18° W 06:42:19 45° NNW 06:45:35 10° NE visible
27 Oct -3.7 05:54:41 67° N 05:54:41 67° N 05:57:53 10° NE visible
28 Oct -1.0 05:09:08 18° ENE 05:09:08 18° ENE 05:10:08 10° ENE visible
28 Oct -2.4 06:42:05 17° WNW 06:43:51 26° NNW 06:46:45 10° NE visible
29 Oct -2.5 05:56:27 31° N 05:56:27 31° N 05:59:03 10° NE visible
